Preview of NWS' New Version of Forecast
This preview is not operational and should not be used for support decisions.

Regional Weather Roundup (RWR)

Issued by National Weather Service (NWS)

                            
000
ASUS45 KABQ 221601
RWRNM 
NEW MEXICO REGIONAL WEATHER ROUNDUP
NATIONAL WEATHER SERVICE ALBUQUERQUE NM
1000 AM MDT THU AUG 22 2019

NOTE: "FAIR" MEANS FEW OR NO CLOUDS BELOW 12,000 FEET AGL WITH NO
       SIGNIFICANT WEATHER OR OBSTRUCTIONS TO VISION.

      THIS PRODUCT IS RELEASED AS TWO VERSIONS.  ONE VERSION NEAR
      THE TOP OF THE HOUR CONTAINING PRELIMINARY DATA FROM ALBUQUERQUE
      AND OTHER STATIONS.  A FINAL VERSION WITH ADDITIONAL DATA IS 
      ISSUED ABOUT 10 MINUTES AFTER THE HOUR.
 
NMZ501-503-504-510>518-221700-
NORTHWEST PLATEAU/NORTHCENTRAL MOUNTAINS
  
CITY           SKY/WX    TMP DP  RH WIND       PRES   REMARKS
FARMINGTON     FAIR      77  45  32 E12       30.10F                  
LOS ALAMOS       N/A     65  48  54 CALM      30.28S                  
SANTA FE       FAIR      70  52  52 SE7       30.22S                  
TAOS             N/A     68  50  52 MISG        N/A                   
ANGEL FIRE     FAIR      57  49  75 CALM      30.35F                  

$$
NMZ402-403-502-505>509-221700-
WESTCENTRAL MOUNTAINS/SOUTHWEST MOUNTAINS
  
CITY           SKY/WX    TMP DP  RH WIND       PRES   REMARKS
GALLUP         FAIR      78  42  27 SW18G24   30.19S                  
GRANTS         FAIR      73  47  39 SE10G17   30.23S                  
SILVER CITY    FAIR      74  52  46 S3        30.16F                  

$$
NMZ407-409-411-412-221700-
SOUTHERN DESERTS
  
CITY           SKY/WX    TMP DP  RH WIND       PRES   REMARKS
DEMING         FAIR      77  58  51 SW3       30.10F                  
LAS CRUCES     FAIR      79  55  42 SW3       30.12S                  
HOLLOMAN AFB   FAIR      81  57  43 CALM      30.11S                  
ALAMOGORDO     FAIR      79  55  44 SW6       30.10S                  
T OR C         FAIR      77  54  44 S8        30.13S                  

$$
NMZ519>523-221700-
CENTRAL VALLEYS/CENTRAL HIGHLANDS
  
CITY           SKY/WX    TMP DP  RH WIND       PRES   REMARKS
ALBUQUERQUE    FAIR      74  52  46 NW3       30.16S                  
DOUBLE EAGLE   MOSUNNY   72  52  49 VRB5      30.19S                  
CLINES CORNERS FAIR      69  51  52 SW13      30.28R                  
BELEN          FAIR      74  49  40 CALM      30.15S                  
SOCORRO        FAIR      75  53  46 SE8       30.13F                  

$$
NMZ524>526-539-540-221700-
SOUTHCENTRAL MOUNTAINS
  
CITY           SKY/WX    TMP DP  RH WIND       PRES   REMARKS
RUIDOSO        FAIR      68  50  52 S3        30.28S                  

$$
NMZ527>531-221700-
NORTHEAST HIGHLANDS/NORTHEAST PLAINS
  
CITY           SKY/WX    TMP DP  RH WIND       PRES   REMARKS
LAS VEGAS      FAIR      71  50  47 S16       30.23F                  
RATON          FAIR      67  50  54 SW5       30.18F                  
CLAYTON        FAIR      78  54  43 SW8       30.11R                  

$$
NMZ532>537-221700-
EASTCENTRAL PLAINS
  
CITY           SKY/WX    TMP DP  RH WIND       PRES   REMARKS
SANTA ROSA     FAIR      77  61  56 S9        30.12F                  
TUCUMCARI      FAIR      76  62  62 CALM      30.08R                  
CANNON AFB     FAIR      76  61  59 SW3       30.12S                  
CLOVIS AIRPORT FAIR      72  62  71 VRB3      30.13R                  

$$
NMZ028-029-538-221700-
SOUTHEAST PLAINS
  
CITY           SKY/WX    TMP DP  RH WIND       PRES   REMARKS
ROSWELL        FAIR      81  58  45 SE7       30.06F                  
ARTESIA        FAIR      79  59  50 CALM      30.08S                  
CARLSBAD       FAIR      81  58  45 VRB3      30.03F                  
HOBBS          PTSUNNY   79  57  47 E7        30.07S                  


$$